Time,TemperatureF,DewpointF,PressureIn,WindDirection,WindDirectionDegrees,WindSpeedMPH,WindSpeedGustMPH,Humidity,HourlyPrecipIn,Conditions,Clouds,dailyrainin,SolarRadiationWatts/m^2,SoftwareType,DateUTC
2013-01-18 01:00:00,37.0,22.0,29.94,South,181,4.0,-999.0,54,-99.99,,,-99.99,0.000000,,2013-01-18 08:00:00,
2013-01-18 01:53:00,37.0,22.0,29.94,South,181,4.0,-999.0,54,-99.99,,,-99.99,0.000000,,2013-01-18 08:53:00,
2013-01-18 02:00:00,41.0,23.0,29.94,West,260,8.0,-999.0,49,-99.99,,,-99.99,0.000000,,2013-01-18 09:00:00,
2013-01-18 02:52:00,41.0,23.0,29.94,West,260,8.0,-999.0,49,-99.99,,,-99.99,0.000000,,2013-01-18 09:52:00,
2013-01-18 03:00:00,42.0,22.0,29.94,West,277,14.0,-999.0,44,-99.99,,,-99.99,0.000000,,2013-01-18 10:00:00,
2013-01-18 03:52:00,42.0,22.0,29.94,West,277,14.0,-999.0,44,-99.99,,,-99.99,0.000000,,2013-01-18 10:52:00,
2013-01-18 04:00:00,41.0,23.0,29.93,West,278,14.0,-999.0,47,-99.99,,,-99.99,0.000000,,2013-01-18 11:00:00,
2013-01-18 04:53:00,41.0,23.0,29.93,West,278,14.0,-999.0,47,-99.99,,,-99.99,0.000000,,2013-01-18 11:53:00,
2013-01-18 05:00:00,36.0,22.0,29.92,West,278,8.0,-999.0,57,-99.99,,,-99.99,0.000000,,2013-01-18 12:00:00,
2013-01-18 05:53:00,36.0,22.0,29.92,West,278,8.0,-999.0,57,-99.99,,,-99.99,0.000000,,2013-01-18 12:53:00,
2013-01-18 06:00:00,34.0,22.0,29.91,WNW,297,3.0,-999.0,61,-99.99,,,-99.99,0.000000,,2013-01-18 13:00:00,
2013-01-18 06:53:00,34.0,22.0,29.91,WNW,297,3.0,-999.0,61,-99.99,,,-99.99,0.000000,,2013-01-18 13:53:00,
2013-01-18 07:00:00,34.0,21.0,29.90,West,265,7.0,-999.0,60,-99.99,,,-99.99,0.000000,,2013-01-18 14:00:00,
2013-01-18 07:53:00,34.0,21.0,29.90,West,265,7.0,-999.0,60,-99.99,,,-99.99,0.000000,,2013-01-18 14:53:00,
2013-01-18 08:00:00,38.0,21.0,29.90,West,263,7.0,-999.0,49,-99.99,,,-99.99,1.500000,,2013-01-18 15:00:00,
2013-01-18 08:53:00,38.0,21.0,29.90,West,263,7.0,-999.0,49,-99.99,,,-99.99,1.500000,,2013-01-18 15:53:00,
2013-01-18 09:00:00,39.0,23.0,29.91,West,269,9.0,-999.0,52,-99.99,,,-99.99,38.689999,,2013-01-18 16:00:00,
2013-01-18 09:53:00,39.0,23.0,29.91,West,269,9.0,-999.0,52,-99.99,,,-99.99,38.689999,,2013-01-18 16:53:00,
2013-01-18 10:00:00,43.0,20.0,29.91,West,263,9.0,-999.0,39,-99.99,,,-99.99,135.300003,,2013-01-18 17:00:00,
2013-01-18 10:53:00,43.0,20.0,29.91,West,263,9.0,-999.0,39,-99.99,,,-99.99,135.300003,,2013-01-18 17:53:00,
2013-01-18 11:00:00,44.0,22.0,29.90,West,265,11.0,-999.0,40,-99.99,,,-99.99,223.100006,,2013-01-18 18:00:00,
2013-01-18 11:53:00,44.0,22.0,29.90,West,265,11.0,-999.0,40,-99.99,,,-99.99,223.100006,,2013-01-18 18:53:00,
2013-01-18 12:00:00,43.0,23.0,29.88,West,261,11.0,-999.0,46,-99.99,,,-99.99,265.000000,,2013-01-18 19:00:00,
2013-01-18 12:53:00,43.0,23.0,29.88,West,261,11.0,-999.0,46,-99.99,,,-99.99,265.000000,,2013-01-18 19:53:00,
2013-01-18 13:00:00,43.0,23.0,29.87,West,268,8.0,-999.0,44,-99.99,,,-99.99,191.300003,,2013-01-18 20:00:00,
2013-01-18 13:53:00,43.0,23.0,29.87,West,268,8.0,-999.0,44,-99.99,,,-99.99,191.300003,,2013-01-18 20:53:00,
2013-01-18 14:00:00,42.0,24.0,29.86,West,281,8.0,-999.0,47,-99.99,,,-99.99,153.600006,,2013-01-18 21:00:00,
2013-01-18 14:53:00,42.0,24.0,29.86,West,281,8.0,-999.0,47,-99.99,,,-99.99,153.600006,,2013-01-18 21:53:00,
2013-01-18 15:00:00,42.0,23.0,29.87,West,274,7.0,-999.0,47,-99.99,,,-99.99,130.199997,,2013-01-18 22:00:00,
2013-01-18 15:53:00,42.0,23.0,29.87,West,274,7.0,-999.0,47,-99.99,,,-99.99,130.199997,,2013-01-18 22:53:00,
2013-01-18 17:00:00,36.0,25.0,29.88,NW,308,2.0,-999.0,63,-99.99,,,-99.99,14.390000,,2013-01-19 00:00:00,
2013-01-18 17:53:00,36.0,25.0,29.88,NW,308,2.0,-999.0,63,-99.99,,,-99.99,14.390000,,2013-01-19 00:53:00,
2013-01-18 18:00:00,35.0,24.0,29.89,West,278,3.0,-999.0,64,-99.99,,,-99.99,0.110000,,2013-01-19 01:00:00,
2013-01-18 18:53:00,35.0,24.0,29.89,West,278,3.0,-999.0,64,-99.99,,,-99.99,0.110000,,2013-01-19 01:53:00,
2013-01-18 19:00:00,33.0,24.0,29.90,WNW,289,1.0,-999.0,67,-99.99,,,-99.99,0.000000,,2013-01-19 02:00:00,
2013-01-18 19:53:00,33.0,24.0,29.90,WNW,289,1.0,-999.0,67,-99.99,,,-99.99,0.000000,,2013-01-19 02:53:00,
2013-01-18 20:00:00,34.0,23.0,29.92,NW,323,5.0,-999.0,63,-99.99,,,-99.99,0.000000,,2013-01-19 03:00:00,
2013-01-18 20:52:00,34.0,23.0,29.92,NW,323,5.0,-999.0,63,-99.99,,,-99.99,0.000000,,2013-01-19 03:52:00,
2013-01-18 21:00:00,37.0,23.0,29.92,WNW,294,7.0,-999.0,56,-99.99,,,-99.99,0.000000,,2013-01-19 04:00:00,
2013-01-18 21:53:00,37.0,23.0,29.92,WNW,294,7.0,-999.0,56,-99.99,,,-99.99,0.000000,,2013-01-19 04:53:00,
2013-01-18 22:00:00,35.0,23.0,29.93,WNW,293,7.0,-999.0,62,-99.99,,,-99.99,0.000000,,2013-01-19 05:00:00,
2013-01-18 22:53:00,35.0,23.0,29.93,WNW,293,7.0,-999.0,62,-99.99,,,-99.99,0.000000,,2013-01-19 05:53:00,
2013-01-18 23:00:00,30.0,22.0,29.94,West,272,7.0,-999.0,73,-99.99,,,-99.99,0.000000,,2013-01-19 06:00:00,
2013-01-18 23:53:00,30.0,22.0,29.94,West,272,7.0,-999.0,73,-99.99,,,-99.99,0.000000,,2013-01-19 06:53:00,